1484211600.78,19495,5.44,71838.3,-12.45,-14.43,-14.29,0,*6E
1484211602.02,19496,5.44,71840.3,-12.45,-14.65,-14.61,0,*65
1484211603.32,19497,5.44,71844.5,-12.45,-14.55,-14.55,0,*60
1484211604.61,19498,5.44,71846.5,-12.45,-14.55,-14.55,0,*6F
1484211605.88,19499,5.44,71850.5,-12.45,-14.75,-14.61,0,*6B
1484211607.17,19500,5.44,71852.0,-12.45,-14.43,-14.43,0,*6F
1484211608.41,19501,5.44,71860.0,-12.45,-14.65,-14.65,0,*6E
1484211609.67,19502,5.44,71860.3,-12.45,-14.61,-14.51,0,*6E
1484211610.93,19503,5.44,71862.0,-12.45,-14.33,-14.43,0,*6B
1484211612.22,19504,5.44,71862.8,-12.45,-14.43,-14.43,0,*6B
1484211613.52,19505,5.44,71872.8,-12.45,-14.47,-14.51,0,*6D
1484211614.82,19506,5.44,71876.3,-12.45,-14.51,-14.51,0,*69
1484211616.13,19507,5.44,71878.8,-12.45,-14.51,-14.47,0,*6F
1484211617.38,19508,5.44,71878.5,-12.45,-14.15,-14.15,0,*67
1484211618.62,19509,5.44,71878.0,-12.45,-14.33,-14.33,0,*66
1484211619.87,19510,5.44,71878.8,-12.45,-14.15,-14.15,0,*6E
1484211621.13,19511,5.44,71878.8,-12.45,-14.15,-14.15,0,*6F
1484211622.37,19512,5.44,71882.0,-12.45,-14.15,-14.11,0,*68
1484211623.62,19513,5.44,71886.5,-12.45,-14.11,-14.11,0,*6D
1484211624.86,19514,5.44,71886.0,-12.45,-14.29,-14.23,0,*60
1484211626.11,19515,5.44,71884.0,-12.45,-14.15,-14.15,0,*6B
1484211627.41,19516,5.44,71884.3,-12.45,-14.01,-14.01,0,*68
1484211628.63,19517,5.44,71884.3,-12.43,-14.11,-14.11,0,*6F
1484211629.85,19518,5.44,71884.0,-12.43,-14.11,-14.11,0,*60
1484211631.06,19519,5.44,71882.3,-12.43,-14.15,-14.11,0,*65
1484211632.29,19520,5.44,71882.0,-12.43,-14.11,-14.15,0,*6F
1484211633.51,19521,5.44,71878.3,-12.43,-14.23,-14.23,0,*6A
1484211634.75,19522,5.44,71876.0,-12.41,-14.15,-14.23,0,*6E
1484211635.99,19523,5.44,71878.8,-12.41,-14.11,-14.11,0,*6A
1484211637.2,19524,5.44,71876.5,-12.43,-14.11,-14.11,0,*6F
1484211638.47,19525,5.44,71880.0,-12.41,-14.43,-14.33,0,*6B
1484211639.73,19526,5.44,71880.8,-12.41,-14.43,-14.29,0,*63
1484211640.97,19527,5.44,71882.0,-12.41,-14.15,-14.23,0,*6B
1484211642.27,19528,5.44,71886.5,-12.41,-14.55,-14.47,0,*62
1484211643.53,19529,5.44,71884.5,-12.41,-14.55,-14.61,0,*67
1484211644.79,19530,5.44,71894.0,-12.41,-14.33,-14.43,0,*6F
1484211646.07,19531,5.5,71896.3,-12.41,-14.47,-14.43,0,*6D
1484211647.36,19532,5.44,71896.8,-12.41,-14.47,-14.43,0,*6E
1484211648.62,19533,5.44,71898.8,-12.41,-14.43,-14.33,0,*6C
1484211649.86,19534,5.44,71898.3,-12.41,-14.33,-14.33,0,*6C
1484211651.13,19535,5.44,71894.0,-12.39,-14.43,-14.51,0,*61
1484211652.35,19536,5.44,71892.5,-12.39,-14.37,-14.29,0,*6E
1484211653.56,19537,5.44,71888.3,-12.39,-14.33,-14.33,0,*60
1484211654.83,19538,5.44,71884.8,-12.39,-14.51,-14.55,0,*6B
1484211656.11,19539,5.44,71880.3,-12.39,-14.51,-14.51,0,*6E
1484211657.34,19540,5.44,71878.5,-12.39,-14.65,-14.55,0,*63
1484211658.55,19541,5.44,71876.8,-12.39,-14.65,-14.69,0,*6D
1484211659.82,19542,5.44,71878.3,-12.39,-14.51,-14.43,0,*61
1484211661.03,19543,5.44,71874.3,-12.39,-14.29,-14.23,0,*69
1484211662.25,19544,5.44,71872.8,-12.39,-14.29,-14.29,0,*64
1484211663.52,19545,5.44,71870.3,-12.39,-14.55,-14.55,0,*65
1484211664.78,19546,5.44,71860.8,-12.35,-14.65,-14.51,0,*6D
1484211666.04,19547,5.44,71860.3,-12.39,-14.55,-14.43,0,*60
1484211667.31,19548,5.44,71858.8,-12.39,-14.55,-14.51,0,*6C
1484211668.53,19549,5.44,71860.8,-12.39,-14.37,-14.29,0,*66
1484211669.78,19550,5.44,71862.5,-12.35,-14.19,-14.15,0,*61
1484211671.05,19551,5.44,71860.8,-12.35,-14.05,-14.15,0,*6D
1484211672.33,19552,5.44,71860.3,-12.39,-14.05,-14.05,0,*63
1484211673.57,19553,5.44,71868.8,-12.39,-14.11,-14.05,0,*67
1484211674.82,19554,5.44,71876.8,-12.35,-14.19,-14.19,0,*69
1484211676.07,19555,5.44,71894.5,-12.35,-14.19,-14.23,0,*61
1484211677.28,19556,5.44,71896.5,-12.39,-14.37,-14.29,0,*68
1484211678.55,19557,5.44,71892.5,-12.39,-14.51,-14.51,0,*66
1484211679.77,19558,5.44,71896.3,-12.33,-14.65,-14.65,0,*63
1484211681.03,19559,5.44,71888.8,-12.35,-14.89,-14.93,0,*6F
1484211682.29,19560,5.44,71884.8,-12.35,-15.07,-15.01,0,*68
1484211683.51,19561,5.44,71888.3,-12.39,-15.15,-15.07,0,*60
1484211684.75,19562,5.44,71888.5,-12.41,-15.15,-15.15,0,*6F
1484211686.01,19563,5.44,71892.8,-12.41,-14.97,-14.89,0,*61
1484211687.29,19564,5.44,71902.0,-12.41,-15.01,-14.97,0,*67
1484211688.58,19565,5.44,71896.5,-12.41,-14.83,-14.83,0,*68
1484211689.84,19566,5.44,71898.0,-12.43,-14.55,-14.43,0,*6E
1484211691.06,19567,5.44,71896.5,-12.43,-14.33,-14.29,0,*63
1484211692.32,19568,5.44,71896.5,-12.41,-14.61,-14.55,0,*62
1484211693.56,19569,5.5,71904.3,-12.41,-14.89,-14.89,0,*64
1484211694.78,19570,5.44,71906.8,-12.41,-14.69,-14.69,0,*6C
1484211696.03,19571,5.44,71892.5,-12.41,-14.75,-14.69,0,*60
1484211697.27,19572,5.44,71886.0,-12.41,-15.15,-15.15,0,*6E
1484211698.51,19573,5.44,71878.3,-12.43,-15.01,-15.11,0,*6C
1484211699.77,19574,5.44,71886.3,-12.43,-14.97,-14.97,0,*6A
1484211701.0,19575,5.44,71894.5,-12.43,-14.75,-14.61,0,*6E
1484211702.27,19576,5.44,71898.8,-12.45,-14.75,-14.65,0,*6F
1484211703.51,19577,5.44,71904.5,-12.45,-14.29,-14.29,0,*6F
1484211704.76,19578,5.44,71904.3,-12.45,-14.23,-14.23,0,*60
1484211706.06,19579,5.44,71904.5,-12.45,-14.83,-14.75,0,*68
1484211707.33,19580,5.44,71902.8,-12.43,-14.83,-14.83,0,*61
1484211708.61,19581,5.44,71902.8,-12.45,-15.01,-15.01,0,*66
1484211709.89,19582,5.44,71904.0,-12.45,-15.35,-15.29,0,*68
1484211711.15,19583,5.44,71910.0,-12.45,-15.21,-15.15,0,*63
1484211712.44,19584,5.44,71906.8,-12.45,-15.35,-15.35,0,*63
1484211713.69,19585,5.44,71902.8,-12.45,-15.49,-15.49,0,*62
1484211714.96,19586,5.44,71892.3,-12.45,-15.89,-15.95,0,*6C
1484211716.24,19587,5.5,71840.0,-12.51,-16.09,-16.09,0,*65
1484211717.53,19588,5.44,71810.3,-12.49,-16.31,-16.31,0,*63
1484211718.82,19589,5.44,71812.3,-12.53,-16.27,-16.31,0,*6E
1484211720.06,19590,5.5,71814.3,-12.55,-16.31,-16.37,0,*61
1484211721.3,19591,5.44,71860.5,-12.55,-15.57,-15.63,0,*61
1484211722.58,19592,5.44,71874.0,-12.57,-15.43,-15.49,0,*6D
1484211723.88,19593,5.44,71880.3,-12.57,-15.43,-15.43,0,*66
1484211725.14,19594,5.44,71892.0,-12.57,-15.63,-15.57,0,*66
1484211726.36,19595,5.44,71890.0,-12.59,-15.67,-15.67,0,*6E
1484211727.66,19596,5.44,71898.8,-12.57,-15.43,-15.43,0,*63
1484211728.88,19597,5.44,71894.3,-12.59,-15.63,-15.67,0,*68
1484211730.1,19598,5.44,71900.3,-12.59,-15.75,-15.67,0,*60
1484211731.33,19599,5.44,71900.3,-12.63,-15.63,-15.53,0,*68
1484211732.62,19600,5.44,71898.3,-12.65,-15.43,-15.35,0,*6F
1484211733.87,19601,5.44,71900.8,-12.65,-15.53,-15.53,0,*6F
1484211735.17,19602,5.44,71910.0,-12.65,-15.39,-15.39,0,*6C
1484211736.43,19603,5.5,71914.3,-12.65,-15.57,-15.67,0,*6E
1484211737.73,19604,5.5,71900.3,-12.65,-15.85,-15.85,0,*6A
1484211738.97,19605,5.44,71880.8,-12.65,-15.71,-15.67,0,*6C
1484211740.19,19606,5.5,71858.5,-12.67,-15.53,-15.53,0,*6A
1484211741.4,19607,5.44,71848.0,-12.67,-15.99,-15.99,0,*6B
1484211742.64,19608,5.44,71824.8,-12.67,-16.51,-16.45,0,*61
1484211743.89,19609,5.44,71792.3,-12.67,-16.13,-16.03,0,*64
1484211745.15,19610,5.44,71802.0,-12.69,-16.31,-16.27,0,*64
1484211746.42,19611,5.44,71802.5,-12.69,-16.13,-16.13,0,*62
1484211747.64,19612,5.44,71792.5,-12.69,-15.49,-15.29,0,*67
1484211748.88,19613,5.44,71802.0,-12.73,-14.93,-14.89,0,*60
1484211750.09,19614,5.44,71796.0,-12.69,-14.69,-14.61,0,*6F
1484211751.3,19615,5.44,71806.8,-12.69,-14.61,-14.69,0,*6E
1484211752.54,19616,5.44,71810.5,-12.69,-14.89,-14.83,0,*6F
1484211753.81,19617,5.5,71812.0,-12.69,-14.83,-14.75,0,*6D
1484211755.06,19618,5.44,71818.3,-12.73,-14.93,-14.93,0,*60
1484211756.32,19619,5.44,71820.5,-12.73,-14.79,-14.75,0,*6D
1484211757.55,19620,5.5,71830.0,-12.69,-14.69,-14.75,0,*6D
1484211758.82,19621,5.44,71830.8,-12.67,-15.01,-14.97,0,*61
1484211760.07,19622,5.44,71832.8,-12.69,-15.01,-15.01,0,*62
1484211761.3,19623,5.44,71842.3,-12.69,-15.29,-15.25,0,*6F
1484211762.55,19624,5.44,71846.8,-12.73,-15.21,-15.21,0,*6F
1484211763.82,19625,5.44,71854.8,-12.69,-14.83,-14.75,0,*6C
1484211765.07,19626,5.44,71856.3,-12.69,-15.01,-15.01,0,*66
1484211766.31,19627,5.44,71860.8,-12.69,-15.11,-15.01,0,*66
1484211767.52,19628,5.44,71872.8,-12.73,-14.89,-14.89,0,*63
1484211768.79,19629,5.44,71882.8,-12.69,-14.75,-14.83,0,*60
1484211770.04,19630,5.44,71888.8,-12.69,-15.01,-15.01,0,*61
1484211771.28,19631,5.44,71878.8,-12.73,-15.29,-15.21,0,*63
1484211772.49,19632,5.44,71880.8,-12.69,-15.11,-15.15,0,*67
1484211773.7,19633,5.5,71894.8,-12.69,-15.11,-15.07,0,*65
1484211774.94,19634,5.44,71888.0,-12.69,-15.01,-15.11,0,*64
1484211776.16,19635,5.44,71886.0,-12.69,-15.29,-15.25,0,*68
1484211777.42,19636,5.44,71886.8,-12.73,-15.01,-14.93,0,*66
1484211778.65,19637,5.44,71890.8,-12.73,-15.07,-14.93,0,*61
1484211779.88,19638,5.44,71880.3,-12.73,-14.93,-14.89,0,*69
1484211781.14,19639,5.44,71884.5,-12.69,-14.97,-14.97,0,*68
1484211782.36,19640,5.44,71886.8,-12.69,-15.15,-15.15,0,*66
1484211783.57,19641,5.44,71888.8,-12.69,-15.07,-15.07,0,*67
1484211784.82,19642,5.5,71890.8,-12.69,-15.49,-15.43,0,*6E
1484211786.03,19643,5.44,71874.0,-12.73,-15.71,-15.71,0,*6E
1484211787.25,19644,5.44,71852.0,-12.73,-15.49,-15.49,0,*69
1484211788.49,19645,5.44,71838.3,-12.73,-15.49,-15.43,0,*62
1484211789.71,19646,5.44,71828.5,-12.73,-15.63,-15.53,0,*68
1484211791.0,19647,5.44,71846.8,-12.75,-15.81,-15.81,0,*6C
1484211792.21,19648,5.44,71862.5,-12.77,-15.95,-15.95,0,*61
1484211793.48,19649,5.5,71870.3,-12.77,-15.81,-15.81,0,*60
1484211794.71,19650,5.44,71864.0,-12.75,-15.67,-15.67,0,*6A
1484211795.92,19651,5.5,71866.8,-12.77,-15.67,-15.67,0,*69
1484211797.13,19652,5.44,71842.3,-12.77,-15.67,-15.67,0,*6A
1484211798.36,19653,5.44,71858.5,-12.77,-15.57,-15.67,0,*68
1484211799.61,19654,5.44,71874.0,-12.79,-15.71,-15.71,0,*62
1484211800.84,19655,5.5,71860.5,-12.79,-15.67,-15.67,0,*63
1484211802.11,19656,5.44,71846.5,-12.81,-15.39,-15.39,0,*67
1484211803.38,19657,5.5,71830.0,-12.79,-15.25,-15.21,0,*65
1484211804.66,19658,5.44,71826.3,-12.79,-15.39,-15.49,0,*69
1484211805.91,19659,5.44,71826.5,-12.81,-15.35,-15.25,0,*69
1484211807.16,19660,5.44,71828.0,-12.79,-15.25,-15.25,0,*65
1484211808.39,19661,5.5,71832.3,-12.81,-15.21,-15.11,0,*60
1484211809.63,19662,5.44,71840.0,-12.79,-14.65,-14.61,0,*63
1484211810.89,19663,5.44,71844.0,-12.81,-14.93,-14.93,0,*61
1484211812.18,19664,5.5,71852.8,-12.79,-14.79,-14.79,0,*61
1484211813.42,19665,5.5,71860.5,-12.79,-14.65,-14.61,0,*64
1484211814.69,19666,5.44,71866.5,-12.79,-14.61,-14.51,0,*60
1484211815.93,19667,5.44,71868.0,-12.79,-14.37,-14.33,0,*66
1484211817.2,19668,5.5,71874.3,-12.77,-14.51,-14.47,0,*64
1484211818.47,19669,5.44,71874.3,-12.77,-14.51,-14.51,0,*62
1484211819.75,19670,5.44,71876.0,-12.75,-14.47,-14.61,0,*6C
1484211821.02,19671,5.5,71880.3,-12.77,-14.51,-14.47,0,*6C
1484211822.26,19672,5.5,71880.3,-12.75,-14.33,-14.33,0,*6A
1484211823.5,19673,5.44,71874.0,-12.75,-14.29,-14.33,0,*60
1484211824.76,19674,5.5,71874.5,-12.77,-14.05,-14.05,0,*6E
1484211826.04,19675,5.44,71868.3,-12.75,-14.15,-14.05,0,*6C
1484211827.29,19676,5.44,71870.5,-12.75,-14.15,-14.15,0,*6E
1484211828.5,19677,5.5,71874.0,-12.73,-14.29,-14.19,0,*6A
1484211829.71,19678,5.44,71870.5,-12.69,-14.37,-14.37,0,*6D
1484211830.97,19679,5.44,71868.5,-12.73,-14.43,-14.43,0,*67
1484211832.19,19680,5.44,71866.8,-12.69,-14.37,-14.37,0,*6A
1484211833.4,19681,5.5,71864.5,-12.69,-14.29,-14.29,0,*6B
1484211834.63,19682,5.44,71862.3,-12.69,-14.23,-14.15,0,*6D
1484211835.85,19683,5.44,71862.5,-12.69,-14.23,-14.29,0,*63
1484211837.08,19684,5.44,71862.3,-12.69,-14.15,-14.15,0,*6E
1484211838.35,19685,5.5,71866.5,-12.67,-14.01,-14.05,0,*65
1484211839.63,19686,5.44,71862.8,-12.67,-14.01,-14.01,0,*62
1484211840.9,19687,5.44,71858.3,-12.67,-13.83,-13.83,0,*63
1484211842.15,19688,5.44,71858.0,-12.67,-13.97,-13.93,0,*68
1484211843.42,19689,5.44,71858.0,-12.67,-13.83,-13.83,0,*6D
1484211844.68,19690,5.5,71858.5,-12.67,-13.79,-13.79,0,*65
1484211845.93,19691,5.44,71854.3,-12.65,-14.23,-14.19,0,*6F
1484211847.17,19692,5.44,71858.0,-12.65,-14.23,-14.11,0,*64
1484211848.44,19693,5.44,71860.5,-12.65,-14.11,-14.05,0,*61
1484211849.74,19694,5.44,71864.0,-12.65,-14.05,-14.05,0,*63
1484211850.99,19695,5.5,71866.5,-12.65,-14.23,-14.19,0,*6B
1484211852.22,19696,5.44,71866.5,-12.63,-14.15,-14.15,0,*67
1484211853.5,19697,5.5,71864.3,-12.63,-14.01,-14.01,0,*66
1484211854.73,19698,5.44,71864.3,-12.63,-14.19,-14.15,0,*65
1484211855.98,19699,5.44,71862.3,-12.65,-14.33,-14.33,0,*6E
1484211857.2,19700,5.5,71868.0,-12.63,-14.29,-14.29,0,*69
1484211858.45,19701,5.44,71864.0,-12.63,-14.19,-14.05,0,*65
1484211859.69,19702,5.44,71870.8,-12.59,-13.93,-13.87,0,*67
1484211860.91,19703,5.5,71870.8,-12.59,-13.73,-13.65,0,*64
1484211862.15,19704,5.44,71870.8,-12.59,-13.93,-13.87,0,*61
1484211863.45,19705,5.44,71868.8,-12.57,-13.97,-13.87,0,*6A
1484211864.75,19706,5.44,71870.5,-12.57,-13.97,-13.97,0,*68
1484211866.02,19707,5.44,71870.3,-12.57,-13.83,-13.73,0,*66
1484211867.26,19708,5.44,71870.5,-12.57,-13.69,-13.69,0,*66
1484211868.5,19709,5.5,71870.3,-12.55,-13.83,-13.73,0,*6A
1484211869.81,19710,5.44,71868.5,-12.53,-14.01,-13.97,0,*63
1484211871.09,19711,5.44,71870.0,-12.55,-14.01,-13.97,0,*64
1484211872.39,19712,5.44,71870.3,-12.53,-13.97,-13.97,0,*69
1484211873.61,19713,5.44,71866.3,-12.55,-14.11,-14.11,0,*6E
1484211874.92,19714,5.5,71866.3,-12.53,-14.01,-14.01,0,*6F
1484211876.22,19715,5.44,71868.0,-12.53,-13.97,-13.87,0,*6F
1484211877.46,19716,5.44,71866.0,-12.53,-13.73,-13.69,0,*66
1484211878.7,19717,5.44,71866.8,-12.51,-13.79,-13.65,0,*63
1484211879.97,19718,5.44,71864.3,-12.51,-13.97,-13.97,0,*61
1484211881.25,19719,5.44,71862.3,-12.51,-13.97,-13.97,0,*60
1484211882.55,19720,5.44,71860.8,-12.49,-13.83,-13.83,0,*63
1484211883.82,19721,5.5,71862.8,-12.49,-14.05,-13.93,0,*6A
1484211885.12,19722,5.44,71862.3,-12.49,-13.97,-13.97,0,*61
1484211886.39,19723,5.44,71866.5,-12.49,-14.11,-14.05,0,*65
1484211887.66,19724,5.5,71868.3,-12.49,-14.11,-14.05,0,*62
1484211888.9,19725,5.5,71872.5,-12.49,-14.11,-14.11,0,*66
1484211890.14,19726,5.5,71872.8,-12.49,-13.69,-13.69,0,*65
1484211891.38,19727,5.5,71876.0,-12.49,-13.69,-13.65,0,*68
1484211892.67,19728,5.5,71876.8,-12.49,-13.83,-13.79,0,*6E
1484211893.96,19729,5.5,71878.8,-12.45,-13.87,-13.87,0,*66
1484211895.22,19730,5.5,71878.0,-12.45,-13.73,-13.79,0,*64
1484211896.46,19731,5.5,71882.0,-12.45,-13.65,-13.73,0,*68
1484211897.69,19732,5.5,71880.5,-12.45,-13.93,-13.93,0,*6C
1484211898.92,19733,5.44,71880.3,-12.45,-13.69,-13.47,0,*61
1484211900.18,19734,5.44,71882.0,-12.45,-13.61,-13.47,0,*6E
1484211901.42,19735,5.5,71884.3,-12.45,-13.55,-13.47,0,*68
1484211902.65,19736,5.44,71880.3,-12.43,-13.61,-13.47,0,*6A
1484211903.9,19737,5.5,71880.0,-12.43,-13.55,-13.33,0,*6F
1484211905.1,19738,5.5,71876.0,-12.43,-13.47,-13.43,0,*64
1484211906.37,19739,5.44,71872.0,-12.43,-13.33,-13.33,0,*61
1484211907.63,19740,5.44,71872.8,-12.41,-13.43,-13.33,0,*6A
1484211908.86,19741,5.5,71872.5,-12.41,-13.43,-13.43,0,*6C
1484211910.12,19742,5.5,71872.3,-12.41,-13.47,-13.33,0,*6C
1484211911.34,19743,5.5,71874.3,-12.41,-13.47,-13.47,0,*6E
1484211912.61,19744,5.5,71878.0,-12.39,-13.29,-13.29,0,*66
1484211913.84,19745,5.44,71872.8,-12.39,-13.93,-13.83,0,*66
1484211915.11,19746,5.5,71876.5,-12.39,-14.05,-14.05,0,*64
1484211916.39,19747,5.44,71874.3,-12.39,-13.97,-13.97,0,*65
1484211917.61,19748,5.44,71876.0,-12.39,-13.69,-13.55,0,*65
1484211918.86,19749,5.5,71878.5,-12.39,-13.79,-13.79,0,*6B
1484211920.1,19750,5.44,71878.8,-12.39,-13.79,-13.69,0,*62
1484211921.34,19751,5.44,71880.0,-12.39,-13.79,-13.55,0,*6C
1484211922.58,19752,5.5,71886.0,-12.35,-13.51,-13.47,0,*6A
1484211923.81,19753,5.5,71890.8,-12.35,-13.65,-13.65,0,*6C
1484211925.05,19754,5.5,71892.5,-12.39,-13.97,-13.93,0,*63
1484211926.29,19755,5.44,71890.0,-12.39,-13.97,-13.93,0,*62
1484211927.58,19756,5.44,71896.8,-12.35,-13.79,-13.87,0,*68
1484211928.88,19757,5.44,71900.5,-12.35,-14.51,-14.51,0,*68
1484211930.09,19758,5.44,71902.3,-12.39,-14.37,-14.37,0,*6B
1484211931.36,19759,5.44,71904.0,-12.39,-14.43,-14.51,0,*69
1484211932.66,19760,5.44,71904.3,-12.35,-14.51,-14.51,0,*6C
1484211933.87,19761,5.5,71904.5,-12.39,-14.69,-14.65,0,*6D
1484211935.14,19762,5.44,71900.8,-12.39,-14.83,-14.79,0,*67
1484211936.41,19763,5.44,71892.5,-12.39,-14.97,-14.97,0,*63
1484211937.64,19764,5.44,71878.8,-12.41,-15.15,-15.11,0,*6F
1484211938.87,19765,5.44,71862.8,-12.41,-14.69,-14.69,0,*6A
1484211940.12,19766,5.5,71878.3,-12.41,-14.69,-14.55,0,*66
1484211941.33,19767,5.44,71864.0,-12.43,-15.11,-15.11,0,*6A
1484211942.57,19768,5.5,71858.5,-12.43,-15.49,-15.35,0,*6E
1484211943.8,19769,5.5,71848.8,-12.43,-14.75,-14.69,0,*69
1484211945.09,19770,5.5,71854.0,-12.41,-14.47,-14.43,0,*6A
1484211946.35,19771,5.5,71848.3,-12.43,-14.55,-14.43,0,*6A
1484211947.61,19772,5.5,71854.0,-12.41,-14.75,-14.69,0,*61
1484211948.86,19773,5.5,71862.0,-12.43,-15.01,-15.01,0,*6F
1484211950.13,19774,5.44,71854.0,-12.43,-14.97,-14.97,0,*68
1484211951.39,19775,5.44,71820.3,-12.43,-14.97,-14.97,0,*69
1484211952.65,19776,5.5,71812.8,-12.45,-15.01,-14.89,0,*6D
1484211953.92,19777,5.5,71808.5,-12.45,-14.75,-14.65,0,*6C
1484211955.18,19778,5.5,71812.0,-12.45,-14.75,-14.61,0,*67
1484211956.42,19779,5.44,71810.5,-12.45,-15.07,-15.07,0,*63
1484211957.7,19780,5.44,71820.5,-12.45,-15.35,-15.25,0,*64
1484211958.97,19781,5.5,71820.3,-12.45,-14.79,-14.65,0,*69
1484211960.21,19782,5.44,71818.0,-12.45,-14.61,-14.65,0,*63
1484211961.48,19783,5.5,71828.3,-12.45,-14.93,-14.89,0,*6D
1484211962.74,19784,5.5,71840.0,-12.45,-14.93,-14.89,0,*6A
1484211964.03,19785,5.5,71844.8,-12.45,-14.75,-14.75,0,*60
1484211965.29,19786,5.44,71848.0,-12.45,-14.93,-14.89,0,*68
1484211966.57,19787,5.5,71864.8,-12.51,-14.55,-14.55,0,*67
1484211967.81,19788,5.5,71870.3,-12.49,-14.37,-14.37,0,*61
1484211969.05,19789,5.44,71870.8,-12.49,-14.37,-14.37,0,*60
1484211970.3,19790,5.5,71878.5,-12.49,-14.37,-14.37,0,*68
1484211971.57,19791,5.5,71882.8,-12.45,-14.47,-14.37,0,*62
1484211972.82,19792,5.5,71888.5,-12.45,-14.37,-14.29,0,*69
1484211974.12,19793,5.5,71894.0,-12.45,-14.51,-14.51,0,*67
1484211975.39,19794,5.5,71894.3,-12.45,-14.61,-14.47,0,*64
1484211976.63,19795,5.5,71900.0,-12.49,-14.37,-14.37,0,*6D
1484211977.88,19796,5.5,71902.3,-12.45,-14.61,-14.65,0,*66
1484211979.12,19797,5.5,71902.0,-12.45,-14.61,-14.65,0,*67
1484211980.35,19798,5.5,71900.0,-12.49,-14.69,-14.69,0,*60
1484211981.61,19799,5.5,71902.5,-12.45,-15.07,-14.93,0,*61
1484211982.85,19800,5.5,71902.3,-12.49,-15.07,-15.07,0,*6E
1484211984.12,19801,5.44,71896.0,-12.49,-15.07,-14.93,0,*63
1484211985.33,19802,5.5,71900.5,-12.51,-14.65,-14.65,0,*65
1484211986.63,19803,5.5,71898.8,-12.49,-14.51,-14.51,0,*6D
1484211987.88,19804,5.44,71896.5,-12.49,-14.23,-14.23,0,*6A
1484211989.11,19805,5.5,71896.3,-12.51,-14.23,-14.23,0,*62
1484211990.35,19806,5.5,71898.3,-12.45,-14.29,-14.33,0,*6F
1484211991.6,19807,5.5,71898.3,-12.45,-14.19,-14.19,0,*65
1484211992.84,19808,5.5,71896.5,-12.45,-14.37,-14.29,0,*65
1484211994.11,19809,5.5,71896.5,-12.49,-14.65,-14.51,0,*60
1484211995.34,19810,5.5,71888.0,-12.49,-14.69,-14.69,0,*6F
1484211996.57,19811,5.5,71878.8,-12.49,-14.69,-14.65,0,*62
1484211997.81,19812,5.5,71878.0,-12.49,-14.69,-14.65,0,*61
1484211999.09,19813,5.5,71874.5,-12.45,-14.47,-14.37,0,*67
1484212000.37,19814,5.5,71868.0,-12.49,-14.43,-14.43,0,*6B
1484212001.65,19815,5.44,71862.5,-12.49,-14.51,-14.37,0,*6A
1484212002.91,19816,5.5,71868.0,-12.49,-15.07,-14.97,0,*61
1484212004.13,19817,5.5,71864.8,-12.51,-15.07,-15.11,0,*66
1484212005.34,19818,5.44,71866.3,-12.51,-15.11,-15.11,0,*6E
1484212006.58,19819,5.5,71864.3,-12.49,-15.11,-15.11,0,*66
1484212007.8,19820,5.5,71866.3,-12.51,-15.11,-15.11,0,*65
1484212009.01,19821,5.5,71872.0,-12.51,-15.07,-15.07,0,*64
1484212010.25,19822,5.5,71872.8,-12.51,-14.79,-14.69,0,*66
1484212011.51,19823,5.5,71872.0,-12.51,-14.93,-14.93,0,*66
1484212012.79,19824,5.5,71868.8,-12.51,-14.83,-14.79,0,*64
1484212014.03,19825,5.5,71872.0,-12.53,-15.11,-14.89,0,*62
1484212015.28,19826,5.5,71872.8,-12.53,-15.25,-15.11,0,*66
1484212016.57,19827,5.5,71876.0,-12.53,-14.75,-14.75,0,*60
1484212017.84,19828,5.5,71872.3,-12.53,-14.61,-14.55,0,*68
1484212019.14,19829,5.5,71874.3,-12.53,-14.55,-14.55,0,*6E
1484212020.4,19830,5.44,71868.3,-12.53,-14.69,-14.75,0,*6B
1484212021.67,19831,5.5,71872.0,-12.53,-14.89,-14.97,0,*68
1484212022.94,19832,5.5,71870.5,-12.53,-14.89,-14.83,0,*6E
1484212024.23,19833,5.5,71870.3,-12.53,-14.97,-14.83,0,*60
1484212025.53,19834,5.5,71866.0,-12.53,-14.83,-14.83,0,*62
1484212026.77,19835,5.5,71870.3,-12.53,-14.69,-14.69,0,*63
1484212027.98,19836,5.5,71868.0,-12.51,-14.69,-14.65,0,*6E
1484212029.25,19837,5.5,71866.5,-12.51,-14.55,-14.55,0,*63
1484212030.49,19838,5.5,71868.5,-12.51,-14.79,-14.69,0,*6D
1484212031.74,19839,5.5,71874.0,-12.51,-14.55,-14.65,0,*6E
1484212033.01,19840,5.5,71870.0,-12.53,-14.61,-14.55,0,*66
1484212034.29,19841,5.5,71872.8,-12.53,-14.47,-14.37,0,*67
1484212035.51,19842,5.5,71878.5,-12.51,-14.33,-14.23,0,*60
1484212036.75,19843,5.5,71880.3,-12.49,-14.33,-14.23,0,*68
1484212038.01,19844,5.5,71886.5,-12.53,-14.23,-14.23,0,*65
1484212039.23,19845,5.5,71888.5,-12.51,-14.11,-14.19,0,*6E
1484212040.48,19846,5.5,71894.5,-12.49,-14.23,-14.19,0,*65
1484212041.7,19847,5.5,71896.3,-12.51,-14.23,-14.19,0,*6D
1484212042.92,19848,5.5,71898.0,-12.51,-14.11,-14.11,0,*6B
1484212044.22,19849,5.5,71902.0,-12.49,-13.97,-14.05,0,*6F
1484212045.52,19850,5.5,71900.5,-12.45,-14.01,-14.01,0,*67
1484212046.79,19851,5.5,71902.8,-12.45,-14.05,-13.93,0,*6E
1484212048.05,19852,5.5,71906.0,-12.45,-14.05,-13.93,0,*6D
1484212049.34,19853,5.5,71902.8,-12.45,-13.79,-13.79,0,*64
1484212050.64,19854,5.5,71898.0,-12.45,-14.05,-14.01,0,*67
1484212051.89,19855,5.5,71896.5,-12.45,-14.15,-14.15,0,*62
1484212053.14,19856,5.5,71892.5,-12.45,-14.15,-14.15,0,*61
1484212054.45,19857,5.5,71888.3,-12.45,-14.01,-14.01,0,*60
1484212055.75,19858,5.5,71886.8,-12.45,-14.01,-14.01,0,*6F
1484212056.99,19859,5.5,71882.3,-12.45,-14.11,-14.11,0,*6E
1484212058.23,19860,5.5,71882.8,-12.45,-14.11,-14.11,0,*64
1484212059.48,19861,5.5,71880.8,-12.45,-14.23,-14.23,0,*65
1484212060.73,19862,5.5,71880.3,-12.45,-14.23,-14.29,0,*6C
1484212061.98,19863,5.44,71876.5,-12.45,-14.23,-14.29,0,*6D
1484212063.25,19864,5.5,71878.5,-12.43,-14.01,-13.97,0,*6E
1484212064.47,19865,5.5,71874.0,-12.43,-14.15,-14.11,0,*63
1484212065.7,19866,5.5,71874.0,-12.43,-14.15,-14.15,0,*64
1484212066.98,19867,5.5,71870.8,-12.41,-13.87,-13.87,0,*67
1484212068.24,19868,5.5,71860.3,-12.41,-13.87,-13.73,0,*63
1484212069.51,19869,5.5,71856.5,-12.43,-14.01,-13.97,0,*63
1484212070.75,19870,5.5,71854.3,-12.41,-14.33,-14.29,0,*6A
1484212072.02,19871,5.5,71840.5,-12.43,-14.43,-14.47,0,*66
1484212073.32,19872,5.44,71834.0,-12.41,-14.47,-14.47,0,*63
1484212074.55,19873,5.5,71820.0,-12.41,-14.61,-14.69,0,*6A
1484212075.78,19874,5.44,71814.5,-12.43,-14.69,-14.75,0,*6A
1484212076.99,19875,5.5,71814.8,-12.43,-14.69,-14.69,0,*66
1484212078.24,19876,5.5,71802.8,-12.43,-15.01,-15.01,0,*65
1484212079.47,19877,5.5,71800.5,-12.43,-15.21,-15.11,0,*67
1484212080.71,19878,5.5,71774.8,-12.43,-15.11,-15.01,0,*6A
1484212081.96,19879,5.5,71770.8,-12.43,-15.35,-15.29,0,*67
1484212083.25,19880,5.5,71774.8,-12.45,-15.39,-15.35,0,*66
1484212084.53,19881,5.5,71776.0,-12.45,-15.39,-15.49,0,*6C
1484212085.82,19882,5.5,71780.3,-12.45,-15.39,-15.39,0,*68
1484212087.1,19883,5.5,71782.5,-12.49,-15.53,-15.43,0,*64
1484212088.37,19884,5.5,71794.3,-12.49,-15.25,-15.21,0,*66
1484212089.58,19885,5.5,71792.8,-12.51,-15.07,-15.07,0,*6A
1484212090.87,19886,5.5,71810.0,-12.49,-14.93,-14.83,0,*61
1484212092.14,19887,5.5,71808.8,-12.51,-14.93,-14.83,0,*69
1484212093.35,19888,5.5,71812.3,-12.51,-14.65,-14.69,0,*6B
1484212094.55,19889,5.5,71814.5,-12.51,-14.69,-14.69,0,*66
1484212095.83,19890,5.5,71810.5,-12.51,-14.83,-14.83,0,*6E
1484212097.04,19891,5.5,71814.8,-12.51,-15.11,-15.07,0,*68
1484212098.29,19892,5.44,71804.3,-12.53,-15.25,-15.15,0,*6D
1484212099.55,19893,5.5,71810.0,-12.53,-15.29,-15.25,0,*63
1484212100.79,19894,5.5,71812.0,-12.55,-15.57,-15.63,0,*69
1484212102.01,19895,5.5,71824.3,-12.55,-15.75,-15.71,0,*6B
1484212103.28,19896,5.5,71820.0,-12.53,-14.89,-15.01,0,*6B
1484212104.5,19897,5.5,71822.5,-12.55,-14.29,-14.29,0,*6D